Location: Asarope
(8.2500°N, 4.4833°E)
Time: 14:20:29
(UTC+00:00)

SAR-Lupe-4 - Pass Details

Date: 07 June 2020
Orbit: 481 x 485 km, 98.2° (Epoch: 13 June)

Event Time Altitude Azimuth Distance (km) Brightness Sun altitude
Exits shadow 04:23:19 17° 200° (SSW) 1,294 5.3 -14.3°
Maximum altitude 04:25:37 35° 259° (WSW) 794 4.1 -13.8°
Drops below altitude 10° 04:28:54 10° 326° (NW) 1,657 6.2 -13.1°
Sets 04:31:04 0° 335° (NNW) 2,534 7.2 -12.6°
